sat.trackr.live / text

‹ back to catalog

STARLINK-37058

NORAD 68195 · 2026-050AE

PAYLOAD ACTIVE UNKNOWN

§ Identity

Operator
Country
US
Launch date
2026-03-14
Launch site
AFETR
Launch vehicle
Mass (kg)
RCS (m²)

Purposes: comms

External: N2YO · Heavens-Above · Gunter

§ Orbital elements

Epoch: 2026-05-24T18:32:37.424832Z

Period
93.85 min
Inclination
53.1595°
Eccentricity
0.0001172
Mean motion
15.34388932 rev/d
Perigee alt
461.9 km
Apogee alt
463.5 km
Semi-major
6,840.9 km
B*
8.6322e-4
RAAN
272.5057°
Arg perigee
86.4064°
Mean anomaly
273.7073°
Rev number
1,078

§ Raw data

STARLINK-370581 68195U 26050AE  26144.77265538  .00028891  00000+0  86322-3 0  99932 68195  53.1595 272.5057 0001172  86.4064 273.7073 15.34388932 10787

JSON: /api/v1/satellites/68195 · /tle

For live sub-satellite position, see the globe view (requires WebGL).

§ Visibility from observer

Set your observer location to see the next 7 days of passes ≥ 10°. The values pass through the URL so the page stays shareable.

No JS? Fill the form by hand. The geolocation button needs JavaScript.